FIN5TO EFHK-EFKT

Flight info

Callsign FIN5TO
Flight time 1h 11m
Altitude 38000
Route TEVRU Y75 EVIMI
Aircraft A20N/M-SDE2E3FGHIRWXY/LB1

Departure

Time 2026-05-04 15:39
Airport Helsinki Vantaa Airport (EFHK)

Arrival

Time 2026-05-04 16:50
Airport Kittilä International Airport (EFKT)
Time Latitude Longitude Altitude Speed Heading
2026-05-04 15:14 60.31801 24.96392 163 ft 0 kts 137°
2026-05-04 15:27 60.31817 24.96363 163 ft 2 kts 137°
2026-05-04 15:28 60.31839 24.96322 163 ft 2 kts 137°
2026-05-04 15:28 60.31850 24.96302 163 ft 2 kts 134°
2026-05-04 15:28 60.31866 24.96252 163 ft 2 kts 103°
2026-05-04 15:29 60.31866 24.96249 163 ft 0 kts 103°
2026-05-04 15:31 60.31865 24.96325 163 ft 7 kts 77°
2026-05-04 15:31 60.31899 24.96422 163 ft 10 kts 48°
2026-05-04 15:32 60.32081 24.96813 163 ft 11 kts 46°
2026-05-04 15:32 60.32183 24.96807 164 ft 10 kts 330°
2026-05-04 15:33 60.32299 24.96669 167 ft 11 kts 329°
2026-05-04 15:34 60.32604 24.96318 173 ft 22 kts 329°
2026-05-04 15:34 60.32742 24.96154 172 ft 24 kts 329°
2026-05-04 15:34 60.32991 24.95865 178 ft 19 kts 330°
2026-05-04 15:35 60.33195 24.95522 182 ft 17 kts 307°
2026-05-04 15:35 60.33177 24.95319 179 ft 13 kts 230°
2026-05-04 15:35 60.33120 24.95169 177 ft 14 kts 248°
2026-05-04 15:36 60.33114 24.94759 181 ft 11 kts 272°
2026-05-04 15:36 60.33115 24.94729 182 ft 0 kts 274°
2026-05-04 15:37 60.33115 24.94727 182 ft 2 kts 274°
2026-05-04 15:37 60.33119 24.94580 189 ft 14 kts 272°
2026-05-04 15:37 60.33108 24.94386 196 ft 15 kts 241°
2026-05-04 15:38 60.33083 24.94320 190 ft 0 kts 228°
2026-05-04 15:38 60.33011 24.94165 194 ft 48 kts 227°
2026-05-04 15:38 60.32629 24.93311 178 ft 112 kts 228°
2026-05-04 15:38 60.31995 24.91911 219 ft 154 kts 228°
2026-05-04 15:39 60.31288 24.90377 978 ft 144 kts 229°
2026-05-04 15:39 60.30588 24.88856 1584 ft 152 kts 232°
2026-05-04 15:39 60.30188 24.84590 2562 ft 176 kts 283°
2026-05-04 15:40 60.30616 24.82184 3039 ft 194 kts 292°
2026-05-04 15:40 60.31219 24.79581 3528 ft 220 kts 294°
2026-05-04 15:40 60.31960 24.76599 3895 ft 250 kts 298°
2026-05-04 15:40 60.32864 24.73604 5041 ft 248 kts 298°
2026-05-04 15:41 60.33730 24.70581 6166 ft 251 kts 297°
2026-05-04 15:41 60.34585 24.67492 7197 ft 252 kts 296°
2026-05-04 15:41 60.35641 24.64596 8199 ft 263 kts 314°
2026-05-04 15:41 60.37279 24.62763 9151 ft 280 kts 339°
2026-05-04 15:42 60.39282 24.62553 10037 ft 299 kts
2026-05-04 15:42 60.41388 24.63416 10580 ft 321 kts
2026-05-04 15:42 60.43636 24.64509 10918 ft 344 kts
2026-05-04 15:42 60.46016 24.65696 11518 ft 356 kts
2026-05-04 15:43 60.48446 24.66887 12378 ft 361 kts
2026-05-04 15:43 60.50910 24.68064 13170 ft 367 kts
2026-05-04 15:43 60.53387 24.69216 13923 ft 372 kts
2026-05-04 15:43 60.55926 24.70385 14673 ft 376 kts
2026-05-04 15:44 60.58502 24.71565 15417 ft 381 kts
2026-05-04 15:44 60.61101 24.72759 16138 ft 386 kts
2026-05-04 15:44 60.63738 24.73969 16858 ft 391 kts
2026-05-04 15:44 60.66408 24.75198 17570 ft 395 kts
2026-05-04 15:45 60.69108 24.76446 18241 ft 399 kts
2026-05-04 15:45 60.71841 24.77708 18854 ft 404 kts
2026-05-04 15:45 60.74595 24.78983 19450 ft 409 kts
2026-05-04 15:45 60.77362 24.80269 20045 ft 414 kts
2026-05-04 15:46 60.80187 24.81583 20626 ft 419 kts
2026-05-04 15:46 60.83060 24.82723 21217 ft 419 kts
2026-05-04 15:46 60.85968 24.83379 21771 ft 423 kts
2026-05-04 15:46 60.88913 24.84064 22385 ft 427 kts
2026-05-04 15:47 60.91891 24.84772 22969 ft 432 kts
2026-05-04 15:47 60.94890 24.85487 23486 ft 437 kts
2026-05-04 15:47 60.97918 24.86211 24025 ft 440 kts
2026-05-04 15:47 61.00981 24.86937 24508 ft 443 kts
2026-05-04 15:48 61.04022 24.87666 24968 ft 447 kts
2026-05-04 15:48 61.07124 24.88412 25443 ft 450 kts
2026-05-04 15:48 61.13385 24.89909 26350 ft 456 kts
2026-05-04 15:49 61.16573 24.90671 26784 ft 460 kts
2026-05-04 15:49 61.19765 24.91430 27220 ft 463 kts
2026-05-04 15:49 61.22975 24.92196 27633 ft 466 kts
2026-05-04 15:49 61.26206 24.92979 28040 ft 469 kts
2026-05-04 15:50 61.29462 24.93773 28431 ft 473 kts
2026-05-04 15:50 61.32733 24.94572 28857 ft 475 kts
2026-05-04 15:50 61.36036 24.95379 29209 ft 479 kts
2026-05-04 15:50 61.39306 24.96175 29590 ft 481 kts
2026-05-04 15:51 61.42642 24.96987 29913 ft 484 kts
2026-05-04 15:51 61.45996 24.97806 30221 ft 487 kts
2026-05-04 15:51 61.49367 24.98630 30528 ft 489 kts
2026-05-04 15:51 61.52757 24.99460 30869 ft 491 kts
2026-05-04 15:52 61.56158 25.00297 31251 ft 492 kts
2026-05-04 15:52 61.59557 25.01130 31667 ft 492 kts
2026-05-04 15:52 61.62951 25.01625 32073 ft 486 kts 354°
2026-05-04 15:52 61.66331 25.01717 32415 ft 486 kts 354°
2026-05-04 15:53 61.69717 25.01846 32808 ft 487 kts 354°
2026-05-04 15:53 61.73106 25.01985 33196 ft 487 kts 354°
2026-05-04 15:53 61.76495 25.02124 33548 ft 487 kts 354°
2026-05-04 15:53 61.79883 25.02258 33856 ft 487 kts 354°
2026-05-04 15:54 61.83273 25.02390 34191 ft 486 kts 354°
2026-05-04 15:54 61.86610 25.02517 34512 ft 485 kts 354°
2026-05-04 15:54 61.89979 25.02647 34821 ft 484 kts 354°
2026-05-04 15:54 61.93353 25.02769 35142 ft 483 kts 354°
2026-05-04 15:55 61.96716 25.02895 35433 ft 483 kts 355°
2026-05-04 15:55 62.00074 25.03023 35708 ft 482 kts 355°
2026-05-04 15:55 62.03429 25.03151 35984 ft 482 kts 355°
2026-05-04 15:55 62.06770 25.03281 36259 ft 481 kts 354°
2026-05-04 15:56 62.10125 25.03401 36509 ft 481 kts 355°
2026-05-04 15:56 62.13463 25.03529 36759 ft 480 kts 355°
2026-05-04 15:56 62.16806 25.03662 36999 ft 479 kts 355°
2026-05-04 15:56 62.20141 25.03794 37186 ft 480 kts 355°
2026-05-04 15:57 62.23478 25.03920 37403 ft 480 kts 355°
2026-05-04 15:57 62.26818 25.04046 37542 ft 480 kts 355°
2026-05-04 15:57 62.33483 25.04307 37573 ft 478 kts 355°
2026-05-04 15:58 62.40108 25.04561 37569 ft 479 kts 355°
2026-05-04 15:58 62.46759 25.04817 37568 ft 478 kts 355°
2026-05-04 15:59 62.53422 25.05075 37568 ft 479 kts 355°
2026-05-04 15:59 62.60083 25.05339 37566 ft 479 kts 355°
2026-05-04 16:00 62.66741 25.05603 37566 ft 479 kts 355°
2026-05-04 16:00 62.73407 25.05859 37561 ft 479 kts 355°
2026-05-04 16:01 62.80083 25.06106 37558 ft 481 kts 355°
2026-05-04 16:01 62.86763 25.06377 37553 ft 479 kts 355°
2026-05-04 16:02 62.93424 25.06645 37552 ft 478 kts 355°
2026-05-04 16:03 63.03406 25.07042 37545 ft 478 kts 355°
2026-05-04 16:03 63.10021 25.07313 37545 ft 478 kts 355°
2026-05-04 16:04 63.16667 25.07588 37533 ft 477 kts 355°
2026-05-04 16:04 63.26617 25.08003 37525 ft 476 kts 355°
2026-05-04 16:05 63.33210 25.08268 37530 ft 476 kts 355°
2026-05-04 16:06 63.43139 25.08670 37520 ft 475 kts 355°
2026-05-04 16:07 63.56350 25.09213 37509 ft 474 kts 355°
2026-05-04 16:08 63.69547 25.09763 37503 ft 473 kts 355°
2026-05-04 16:09 63.86002 25.10456 37508 ft 472 kts 355°
2026-05-04 16:10 63.99143 25.10999 37523 ft 474 kts 355°
2026-05-04 16:11 64.12374 25.11562 37530 ft 475 kts 355°
2026-05-04 16:12 64.32120 25.12403 37532 ft 474 kts 355°
2026-05-04 16:13 64.45295 25.12951 37522 ft 472 kts 355°
2026-05-04 16:14 64.58333 25.12914 37513 ft 469 kts 354°
2026-05-04 16:16 64.73554 25.12898 37527 ft 470 kts 355°
2026-05-04 16:17 64.89951 25.12901 37553 ft 471 kts 355°
2026-05-04 16:18 65.03031 25.12897 37550 ft 471 kts 355°
2026-05-04 16:19 65.19399 25.12899 37535 ft 470 kts 355°
2026-05-04 16:20 65.35749 25.12822 37521 ft 469 kts 355°
2026-05-04 16:22 65.52105 25.12735 37539 ft 471 kts 355°
2026-05-04 16:23 65.71656 25.12637 37542 ft 469 kts 355°
2026-05-04 16:25 65.91254 25.12516 37548 ft 470 kts 355°
2026-05-04 16:26 66.04288 25.12452 37320 ft 468 kts 355°
2026-05-04 16:26 66.14131 25.11815 35220 ft 474 kts 350°
2026-05-04 16:27 66.20717 25.10680 33814 ft 475 kts 350°
2026-05-04 16:28 66.30587 25.09014 31624 ft 469 kts 349°
2026-05-04 16:28 66.40212 25.07349 29905 ft 456 kts 348°
2026-05-04 16:29 66.52545 25.05151 27791 ft 431 kts 348°
2026-05-04 16:30 66.61357 25.03561 26260 ft 415 kts 348°
2026-05-04 16:31 66.67031 25.02525 25263 ft 407 kts 348°
2026-05-04 16:31 66.75374 25.00999 23776 ft 396 kts 348°
2026-05-04 16:32 66.83518 24.99503 22247 ft 384 kts 348°
2026-05-04 16:33 66.88786 24.98517 21268 ft 375 kts 349°
2026-05-04 16:33 66.93931 24.97564 20296 ft 366 kts 349°
2026-05-04 16:34 66.98929 24.96612 19341 ft 359 kts 350°
2026-05-04 16:34 67.01414 24.96152 18866 ft 356 kts 350°
2026-05-04 16:35 67.08752 24.94796 17399 ft 347 kts 351°
2026-05-04 16:35 67.15851 24.93448 15989 ft 337 kts 352°
2026-05-04 16:36 67.18289 24.92971 15497 ft 364 kts 352°
2026-05-04 16:36 67.23447 24.91972 14464 ft 376 kts 352°
2026-05-04 16:37 67.28430 24.89519 13781 ft 353 kts 342°
2026-05-04 16:37 67.30774 24.88034 13429 ft 343 kts 343°
2026-05-04 16:37 67.35337 24.85048 12477 ft 333 kts 342°
2026-05-04 16:38 67.39755 24.82120 11563 ft 324 kts 342°
2026-05-04 16:39 67.46184 24.77794 10347 ft 308 kts 340°
2026-05-04 16:39 67.50152 24.75207 9655 ft 286 kts 343°
2026-05-04 16:40 67.53953 24.72862 9268 ft 283 kts 343°
2026-05-04 16:40 67.57747 24.70550 8998 ft 277 kts 342°
2026-05-04 16:41 67.61555 24.68143 8458 ft 281 kts 342°
2026-05-04 16:41 67.67139 24.64577 7448 ft 269 kts 342°
2026-05-04 16:42 67.72490 24.61299 6483 ft 255 kts 343°
2026-05-04 16:43 67.75906 24.59113 5860 ft 251 kts 342°
2026-05-04 16:43 67.79257 24.56880 5253 ft 256 kts 342°
2026-05-04 16:43 67.81115 24.55658 4977 ft 289 kts 342°
2026-05-04 16:44 67.88396 24.57480 4526 ft 261 kts 53°
2026-05-04 16:45 67.89367 24.66137 3982 ft 244 kts 87°
2026-05-04 16:46 67.86667 24.74833 2834 ft 205 kts 174°
2026-05-04 16:46 67.83952 24.76057 2630 ft 197 kts 174°
2026-05-04 16:47 67.81504 24.77285 2610 ft 172 kts 174°
2026-05-04 16:47 67.79204 24.78612 2256 ft 160 kts 171°
2026-05-04 16:48 67.76330 24.80623 1626 ft 137 kts 170°
2026-05-04 16:48 67.75419 24.81309 1444 ft 135 kts 171°
2026-05-04 16:49 67.73650 24.82411 1149 ft 127 kts 169°
2026-05-04 16:49 67.71912 24.83566 832 ft 130 kts 170°
2026-05-04 16:50 67.70289 24.84570 637 ft 84 kts 166°
2026-05-04 16:50 67.69559 24.85038 645 ft 20 kts 166°
2026-05-04 16:51 67.69519 24.85315 645 ft 4 kts 78°
2026-05-04 16:51 67.69523 24.85443 643 ft 9 kts 104°
2026-05-04 16:51 67.69472 24.85548 642 ft 4 kts 162°
2026-05-04 16:52 67.69459 24.85669 640 ft 4 kts 78°
2026-05-04 16:52 67.69464 24.85723 641 ft 0 kts 78°